ANZ103 NZAA-YSSY

Flight info

Callsign ANZ103
Flight time 0h 45m
Altitude 38000
Route VELMO DCT 38S163E DCT PLUGA DCT RIKNI N774 MARLN
Aircraft B77W/H-SDE1E2E3FGHIJ2J3J4J5M1RWXY/LB1D1

Departure

Time 2026-05-07 05:20
Airport Auckland International Airport (NZAA)

Arrival

Time 2026-05-07 06:05
Airport Sydney Kingsford Smith International Airport (YSSY)
Time Latitude Longitude Altitude Speed Heading
2026-05-07 04:47 -37.00760 174.78271 30 ft 0 kts 298°
2026-05-07 05:07 -37.00764 174.78279 30 ft 4 kts 298°
2026-05-07 05:07 -37.00781 174.78319 30 ft 4 kts 295°
2026-05-07 05:07 -37.00787 174.78349 28 ft 4 kts 259°
2026-05-07 05:08 -37.00776 174.78375 28 ft 4 kts 212°
2026-05-07 05:08 -37.00762 174.78384 29 ft 0 kts 193°
2026-05-07 05:08 -37.00780 174.78380 29 ft 4 kts 186°
2026-05-07 05:08 -37.00793 174.78379 30 ft 0 kts 186°
2026-05-07 05:13 -37.00816 174.78376 30 ft 7 kts 186°
2026-05-07 05:13 -37.00867 174.78369 30 ft 8 kts 186°
2026-05-07 05:13 -37.00909 174.78364 30 ft 6 kts 186°
2026-05-07 05:14 -37.00951 174.78361 30 ft 6 kts 175°
2026-05-07 05:14 -37.00994 174.78374 30 ft 6 kts 165°
2026-05-07 05:14 -37.01038 174.78372 30 ft 6 kts 194°
2026-05-07 05:14 -37.01078 174.78346 30 ft 7 kts 221°
2026-05-07 05:15 -37.01103 174.78291 30 ft 8 kts 249°
2026-05-07 05:15 -37.01125 174.78214 30 ft 10 kts 251°
2026-05-07 05:15 -37.01147 174.78133 30 ft 10 kts 251°
2026-05-07 05:15 -37.01171 174.78053 30 ft 10 kts 251°
2026-05-07 05:16 -37.01194 174.77971 30 ft 10 kts 251°
2026-05-07 05:16 -37.01216 174.77889 30 ft 10 kts 251°
2026-05-07 05:16 -37.01238 174.77807 30 ft 10 kts 251°
2026-05-07 05:16 -37.01260 174.77725 30 ft 10 kts 251°
2026-05-07 05:17 -37.01283 174.77643 30 ft 10 kts 251°
2026-05-07 05:17 -37.01306 174.77562 30 ft 10 kts 251°
2026-05-07 05:17 -37.01328 174.77480 30 ft 10 kts 251°
2026-05-07 05:17 -37.01351 174.77399 30 ft 10 kts 251°
2026-05-07 05:18 -37.01373 174.77318 30 ft 10 kts 251°
2026-05-07 05:18 -37.01396 174.77236 30 ft 10 kts 251°
2026-05-07 05:18 -37.01417 174.77160 30 ft 8 kts 251°
2026-05-07 05:18 -37.01454 174.77112 30 ft 8 kts 203°
2026-05-07 05:19 -37.01510 174.77097 30 ft 8 kts 191°
2026-05-07 05:19 -37.01567 174.77084 30 ft 8 kts 187°
2026-05-07 05:19 -37.01609 174.77093 30 ft 6 kts 153°
2026-05-07 05:19 -37.01614 174.77139 30 ft 6 kts 75°
2026-05-07 05:20 -37.01564 174.77324 31 ft 54 kts 71°
2026-05-07 05:20 -37.01352 174.78094 31 ft 131 kts 71°
2026-05-07 05:20 -37.00998 174.79397 198 ft 172 kts 69°
2026-05-07 05:20 -37.00633 174.80785 1006 ft 171 kts 67°
2026-05-07 05:21 -37.00561 174.82309 1646 ft 191 kts 100°
2026-05-07 05:21 -37.02719 174.84656 2606 ft 236 kts 173°
2026-05-07 05:21 -37.04306 174.84416 3291 ft 231 kts 197°
2026-05-07 05:22 -37.05865 174.83872 3885 ft 235 kts 197°
2026-05-07 05:22 -37.07455 174.83324 3990 ft 238 kts 196°
2026-05-07 05:22 -37.09063 174.82802 4093 ft 245 kts 196°
2026-05-07 05:22 -37.10777 174.82263 4507 ft 266 kts 195°
2026-05-07 05:23 -37.12631 174.81619 4973 ft 279 kts 206°
2026-05-07 05:23 -37.14149 174.80135 5660 ft 279 kts 241°
2026-05-07 05:23 -37.14908 174.77970 6617 ft 270 kts 252°
2026-05-07 05:23 -37.15556 174.75774 7403 ft 273 kts 253°
2026-05-07 05:24 -37.16234 174.73539 8272 ft 275 kts 252°
2026-05-07 05:24 -37.16932 174.71287 9101 ft 279 kts 252°
2026-05-07 05:24 -37.17646 174.69005 9938 ft 283 kts 252°
2026-05-07 05:24 -37.18388 174.66637 10573 ft 295 kts 252°
2026-05-07 05:25 -37.24931 174.45473 15784 ft 380 kts 251°
2026-05-07 05:25 -37.30482 174.27700 19870 ft 414 kts 251°
2026-05-07 05:25 -37.47597 173.71370 30366 ft 456 kts 252°
2026-05-07 05:25 -37.65471 173.11337 35900 ft 464 kts 253°
2026-05-07 05:26 -37.83406 172.49772 36407 ft 472 kts 254°
2026-05-07 05:26 -38.01132 171.87604 36060 ft 464 kts 255°
2026-05-07 05:26 -38.17913 171.27151 35896 ft 452 kts 256°
2026-05-07 05:26 -38.28316 170.67169 35851 ft 392 kts 281°
2026-05-07 05:27 -38.26934 170.07599 36675 ft 445 kts 275°
2026-05-07 05:27 -38.26227 169.49331 36167 ft 458 kts 275°
2026-05-07 05:27 -38.26181 169.45312 36075 ft 447 kts 275°
2026-05-07 05:27 -38.25912 169.22788 35460 ft 402 kts 276°
2026-05-07 05:28 -38.25012 168.71698 34982 ft 342 kts 277°
2026-05-07 05:28 -38.23904 168.22622 36705 ft 373 kts 277°
2026-05-07 05:28 -38.22382 167.63403 37982 ft 451 kts 276°
2026-05-07 05:28 -38.20357 166.98224 37990 ft 467 kts 276°
2026-05-07 05:29 -38.17947 166.32527 37801 ft 458 kts 276°
2026-05-07 05:29 -38.15247 165.69032 37771 ft 443 kts 277°
2026-05-07 05:29 -38.12306 165.07500 37783 ft 431 kts 277°
2026-05-07 05:29 -38.09129 164.47486 37922 ft 424 kts 277°
2026-05-07 05:30 -38.05639 163.87617 38036 ft 424 kts 278°
2026-05-07 05:30 -37.92793 162.70005 37960 ft 415 kts 291°
2026-05-07 05:31 -37.64028 161.57307 37881 ft 423 kts 290°
2026-05-07 05:31 -37.34359 160.45219 37854 ft 421 kts 291°
2026-05-07 05:32 -37.03941 159.35295 37860 ft 417 kts 291°
2026-05-07 05:32 -36.88557 158.81240 37735 ft 407 kts 292°
2026-05-07 05:32 -36.73267 158.28732 37691 ft 399 kts 293°
2026-05-07 05:33 -36.42010 157.24215 37862 ft 412 kts 294°
2026-05-07 05:33 -36.08547 156.16462 37817 ft 423 kts 294°
2026-05-07 05:34 -35.85299 155.43867 37805 ft 426 kts 294°
2026-05-07 05:34 -35.83119 155.37131 37793 ft 425 kts 294°
2026-05-07 05:35 -35.80941 155.30427 37801 ft 423 kts 294°
2026-05-07 05:35 -35.78756 155.23724 37804 ft 421 kts 294°
2026-05-07 05:36 -35.76575 155.17051 37807 ft 419 kts 294°
2026-05-07 05:36 -35.74412 155.10447 37810 ft 418 kts 294°
2026-05-07 05:37 -35.33784 154.30876 38067 ft 413 kts 308°
2026-05-07 05:37 -35.03302 153.87493 38074 ft 428 kts 309°
2026-05-07 05:37 -34.75362 153.48500 37880 ft 428 kts 309°
2026-05-07 05:38 -34.71493 153.43148 37902 ft 420 kts 309°
2026-05-07 05:38 -34.67638 153.37823 37911 ft 420 kts 309°
2026-05-07 05:39 -34.63817 153.32549 37696 ft 415 kts 309°
2026-05-07 05:39 -34.61916 153.29927 37423 ft 413 kts 309°
2026-05-07 05:39 -34.60013 153.27303 37008 ft 415 kts 309°
2026-05-07 05:39 -34.58100 153.24665 36606 ft 416 kts 309°
2026-05-07 05:40 -34.56186 153.22030 36256 ft 416 kts 309°
2026-05-07 05:40 -34.54278 153.19404 35912 ft 415 kts 309°
2026-05-07 05:40 -34.52396 153.16818 35562 ft 414 kts 309°
2026-05-07 05:40 -34.50490 153.14200 35186 ft 414 kts 309°
2026-05-07 05:41 -34.48588 153.11589 34774 ft 415 kts 308°
2026-05-07 05:41 -34.46670 153.08958 34316 ft 416 kts 308°
2026-05-07 05:41 -34.44751 153.06327 33539 ft 417 kts 309°
2026-05-07 05:41 -34.42833 153.03699 32668 ft 415 kts 309°
2026-05-07 05:42 -34.40926 153.01089 31802 ft 413 kts 310°
2026-05-07 05:42 -34.39027 152.98491 31003 ft 410 kts 310°
2026-05-07 05:42 -34.37154 152.95932 30404 ft 403 kts 311°
2026-05-07 05:42 -34.35335 152.93449 29765 ft 397 kts 311°
2026-05-07 05:43 -34.33521 152.90975 29103 ft 390 kts 311°
2026-05-07 05:43 -34.31734 152.88538 28515 ft 383 kts 311°
2026-05-07 05:43 -34.29982 152.86152 27895 ft 376 kts 311°
2026-05-07 05:43 -34.28261 152.83811 27390 ft 368 kts 311°
2026-05-07 05:44 -34.26574 152.81515 26870 ft 363 kts 310°
2026-05-07 05:44 -34.24909 152.79251 26317 ft 358 kts 310°
2026-05-07 05:44 -34.23282 152.77029 25745 ft 353 kts 309°
2026-05-07 05:44 -34.21865 152.74640 24965 ft 356 kts 302°
2026-05-07 05:45 -34.20661 152.71984 24358 ft 364 kts 299°
2026-05-07 05:45 -34.19541 152.69210 23751 ft 370 kts 297°
2026-05-07 05:45 -34.18603 152.66290 23125 ft 376 kts 291°
2026-05-07 05:45 -34.17842 152.63269 22644 ft 376 kts 290°
2026-05-07 05:46 -34.17091 152.60236 22082 ft 377 kts 290°
2026-05-07 05:46 -34.16344 152.57218 21446 ft 373 kts 290°
2026-05-07 05:46 -34.15603 152.54241 20782 ft 367 kts 290°
2026-05-07 05:46 -34.14870 152.51317 20169 ft 362 kts 288°
2026-05-07 05:47 -34.14152 152.48470 19658 ft 355 kts 288°
2026-05-07 05:47 -34.13438 152.45642 19146 ft 352 kts 288°
2026-05-07 05:47 -34.12715 152.42787 18633 ft 359 kts 287°
2026-05-07 05:47 -34.11979 152.39890 18077 ft 360 kts 287°
2026-05-07 05:48 -34.11256 152.37044 17451 ft 350 kts 287°
2026-05-07 05:48 -34.10534 152.34205 16945 ft 357 kts 287°
2026-05-07 05:48 -34.09816 152.31385 16365 ft 342 kts 286°
2026-05-07 05:48 -34.09125 152.28680 15882 ft 339 kts 286°
2026-05-07 05:49 -34.08421 152.25916 15341 ft 350 kts 285°
2026-05-07 05:49 -34.07707 152.23118 14825 ft 359 kts 285°
2026-05-07 05:49 -34.06966 152.20223 14435 ft 363 kts 285°
2026-05-07 05:49 -34.06222 152.17314 13979 ft 362 kts 284°
2026-05-07 05:50 -34.05502 152.14512 13101 ft 337 kts 284°
2026-05-07 05:50 -34.04821 152.11862 12592 ft 325 kts 283°
2026-05-07 05:50 -34.04150 152.09281 12087 ft 321 kts 284°
2026-05-07 05:50 -34.03508 152.06712 11611 ft 319 kts 281°
2026-05-07 05:51 -34.03099 152.04142 11171 ft 304 kts 275°
2026-05-07 05:51 -34.02861 152.01625 10918 ft 297 kts 272°
2026-05-07 05:51 -34.02659 151.99215 10741 ft 287 kts 272°
2026-05-07 05:51 -34.02454 151.96865 10602 ft 277 kts 273°
2026-05-07 05:52 -34.02242 151.94608 10500 ft 266 kts 272°
2026-05-07 05:52 -34.02032 151.92437 10357 ft 256 kts 272°
2026-05-07 05:52 -34.01827 151.90340 10205 ft 248 kts 272°
2026-05-07 05:52 -34.01622 151.88319 10112 ft 238 kts 271°
2026-05-07 05:53 -34.01427 151.86367 10015 ft 235 kts 272°
2026-05-07 05:53 -34.01224 151.84386 9834 ft 242 kts 271°
2026-05-07 05:53 -34.01022 151.82388 9537 ft 243 kts 271°
2026-05-07 05:53 -34.00814 151.80378 9247 ft 241 kts 271°
2026-05-07 05:54 -34.00604 151.78391 8945 ft 237 kts 275°
2026-05-07 05:54 -34.00079 151.76513 8678 ft 238 kts 287°
2026-05-07 05:54 -33.99337 151.74702 8389 ft 243 kts 290°
2026-05-07 05:54 -33.98560 151.72876 8107 ft 247 kts 289°
2026-05-07 05:55 -33.97776 151.71023 7815 ft 250 kts 289°
2026-05-07 05:55 -33.97012 151.69214 7513 ft 235 kts 289°
2026-05-07 05:55 -33.96298 151.67509 7158 ft 220 kts 288°
2026-05-07 05:55 -33.95657 151.65978 7032 ft 202 kts 287°
2026-05-07 05:56 -33.95033 151.64457 6777 ft 201 kts 288°
2026-05-07 05:56 -33.94416 151.62956 6524 ft 198 kts 287°
2026-05-07 05:56 -33.93810 151.61481 6273 ft 195 kts 287°
2026-05-07 05:56 -33.93211 151.60027 6053 ft 193 kts 288°
2026-05-07 05:57 -33.92617 151.58581 5818 ft 192 kts 285°
2026-05-07 05:57 -33.92227 151.57059 5375 ft 191 kts 273°
2026-05-07 05:57 -33.92009 151.55501 5113 ft 187 kts 272°
2026-05-07 05:57 -33.91801 151.53971 4866 ft 183 kts 272°
2026-05-07 05:58 -33.91595 151.52501 4635 ft 178 kts 272°
2026-05-07 05:58 -33.91389 151.51072 4447 ft 170 kts 272°
2026-05-07 05:58 -33.91187 151.49707 4315 ft 163 kts 273°
2026-05-07 05:58 -33.90987 151.48328 4246 ft 167 kts 272°
2026-05-07 05:59 -33.90784 151.46981 4132 ft 160 kts 273°
2026-05-07 05:59 -33.90587 151.45669 4078 ft 160 kts 272°
2026-05-07 05:59 -33.90383 151.44342 4017 ft 164 kts 274°
2026-05-07 05:59 -33.90168 151.42959 3855 ft 171 kts 274°
2026-05-07 06:00 -33.89956 151.41566 3640 ft 167 kts 274°
2026-05-07 06:00 -33.89756 151.40221 3385 ft 165 kts 274°
2026-05-07 06:00 -33.89549 151.38859 3151 ft 163 kts 268°
2026-05-07 06:00 -33.89670 151.37556 3089 ft 151 kts 256°
2026-05-07 06:01 -33.89882 151.36282 3045 ft 155 kts 255°
2026-05-07 06:01 -33.90104 151.34967 2851 ft 163 kts 255°
2026-05-07 06:01 -33.90309 151.33624 2601 ft 162 kts 254°
2026-05-07 06:01 -33.90592 151.32331 2362 ft 160 kts 253°
2026-05-07 06:02 -33.90901 151.31053 2093 ft 153 kts 253°
2026-05-07 06:02 -33.91183 151.29905 1941 ft 139 kts 253°
2026-05-07 06:02 -33.91437 151.28828 1782 ft 130 kts 253°
2026-05-07 06:02 -33.91659 151.27820 1593 ft 119 kts 253°
2026-05-07 06:03 -33.91862 151.26896 1477 ft 115 kts 251°
2026-05-07 06:03 -33.92087 151.25958 1319 ft 118 kts 251°
2026-05-07 06:03 -33.92313 151.25023 1141 ft 116 kts 250°
2026-05-07 06:03 -33.92535 151.24092 989 ft 117 kts 251°
2026-05-07 06:04 -33.92768 151.23137 822 ft 119 kts 253°
2026-05-07 06:04 -33.92993 151.22191 659 ft 117 kts 252°
2026-05-07 06:04 -33.93213 151.21242 477 ft 118 kts 252°
2026-05-07 06:04 -33.93451 151.20246 306 ft 124 kts 253°
2026-05-07 06:05 -33.93683 151.19284 122 ft 118 kts 253°
2026-05-07 06:05 -33.93903 151.18351 35 ft 109 kts 254°
2026-05-07 06:05 -33.94073 151.17637 33 ft 66 kts 254°
2026-05-07 06:05 -33.94161 151.17269 33 ft 34 kts 254°
2026-05-07 06:06 -33.94220 151.17019 34 ft 26 kts 254°
2026-05-07 06:06 -33.94233 151.16892 33 ft 13 kts 294°
2026-05-07 06:06 -33.94191 151.16857 33 ft 2 kts 340°
2026-05-07 06:06 -33.94175 151.16852 34 ft 2 kts 345°
2026-05-07 06:07 -33.94166 151.16849 34 ft 1 kts 344°
2026-05-07 06:07 -33.94159 151.16847 34 ft 3 kts 344°
2026-05-07 06:07 -33.94122 151.16836 34 ft 6 kts 346°
2026-05-07 06:07 -33.94087 151.16812 35 ft 6 kts 309°
2026-05-07 06:08 -33.94081 151.16763 35 ft 6 kts 263°
2026-05-07 06:08 -33.94090 151.16713 35 ft 6 kts 256°
2026-05-07 06:08 -33.94102 151.16664 35 ft 6 kts 250°
2026-05-07 06:08 -33.94115 151.16615 35 ft 6 kts 255°
2026-05-07 06:09 -33.94127 151.16560 34 ft 7 kts 254°
2026-05-07 06:09 -33.94141 151.16501 35 ft 7 kts 254°
2026-05-07 06:09 -33.94155 151.16441 35 ft 7 kts 254°
2026-05-07 06:09 -33.94169 151.16382 35 ft 7 kts 254°
2026-05-07 06:10 -33.94167 151.16323 35 ft 7 kts 299°
2026-05-07 06:10 -33.94125 151.16288 35 ft 7 kts 339°
2026-05-07 06:10 -33.94075 151.16279 35 ft 8 kts 359°
2026-05-07 06:10 -33.94009 151.16290 33 ft 12 kts 11°
2026-05-07 06:11 -33.93939 151.16307 35 ft 5 kts 12°
2026-05-07 06:11 -33.93920 151.16335 35 ft 5 kts 78°
2026-05-07 06:11 -33.93925 151.16354 35 ft 4 kts 113°
2026-05-07 06:11 -33.93943 151.16389 35 ft 3 kts 125°
2026-05-07 06:12 -33.93947 151.16396 35 ft 1 kts 124°
2026-05-07 06:12 -33.93948 151.16398 35 ft 0 kts 124°
2026-05-07 06:12 -33.93952 151.16404 35 ft 1 kts 125°
2026-05-07 06:12 -33.93953 151.16405 35 ft 0 kts 125°